This is the latest recevied weather packets stored in our database for station/object K0CVS. If no packets are shown the sender has not sent any weather packets the latest 1 day(s).
| Time | Temp. | Humidity | Pressure | Rain* | Wind** | Luminosity | Snow |
|---|---|---|---|---|---|---|---|
| 1778026395 | 10.56° C | 83% | 1011.9 hPa | 0 mm | 0 m/s | 21 W/m² | - |
| 1778026092 | 10.56° C | 83% | 1011.7 hPa | 0 mm | 0 m/s | 22 W/m² | - |
| 1778025790 | 10.56° C | 83% | 1011.8 hPa | 1.27 mm | 0 m/s | 25 W/m² | - |
| 1778025486 | 10.56° C | 83% | 1011.8 hPa | 1.27 mm | 0 m/s | 20 W/m² | - |
| 1778025184 | 10.56° C | 81% | 1012 hPa | 0 mm | 0 m/s | 28 W/m² | - |
| 1778024880 | 10.56° C | 81% | 1011.7 hPa | 0 mm | 0 m/s | 38 W/m² | - |
| 1778024578 | 10.56° C | 82% | 1011.6 hPa | 0 mm | 0 m/s | 47 W/m² | - |
| 1778024275 | 10.56° C | 83% | 1012 hPa | 0 mm | 0 m/s | 39 W/m² | - |
| 1778023973 | 10.56° C | 83% | 1011.8 hPa | 0 mm | 0 m/s | 42 W/m² | - |
| 1778023670 | 10.56° C | 85% | 1011.8 hPa | 0 mm | 0 m/s | 49 W/m² | - |
| 1778023367 | 10.56° C | 85% | 1011.9 hPa | 0 mm | 0 m/s | 54 W/m² | - |
| 1778023063 | 10.56° C | 84% | 1011.8 hPa | 0 mm | 0 m/s | 40 W/m² | - |
| 1778022763 | 10.56° C | 85% | 1012.2 hPa | 0 mm | 0 m/s | 38 W/m² | - |
| 1778022460 | 10.56° C | 84% | 1012 hPa | 0 mm | 0 m/s | 45 W/m² | - |
| 1778022157 | 10.56° C | 83% | 1012.1 hPa | 0 mm | 0 m/s | 43 W/m² | - |
| 1778021853 | 10.56° C | 83% | 1012.2 hPa | 0 mm | 0 m/s | 42 W/m² | - |
| 1778021551 | 10.56° C | 84% | 1012 hPa | 0 mm | 0 m/s | 40 W/m² | - |
| 1778021246 | 10.56° C | 84% | 1011.9 hPa | 0 mm | 0 m/s | 52 W/m² | - |
| 1778020944 | 10.56° C | 84% | 1011.7 hPa | 0 mm | 0 m/s | 62 W/m² | - |
| 1778020641 | 10.56° C | 83% | 1011.8 hPa | 0 mm | 0 m/s | 48 W/m² | - |
| 1778020337 | 10.56° C | 83% | 1011.8 hPa | 0 mm | 0 m/s | 54 W/m² | - |
| 1778020033 | 10.56° C | 82% | 1012 hPa | 0 mm | 0 m/s | 61 W/m² | - |
| 1778019729 | 10.56° C | 83% | 1012 hPa | 0 mm | 0 m/s | 52 W/m² | - |
| 1778019427 | 10.56° C | 83% | 1011.9 hPa | 0 mm | 0 m/s | 54 W/m² | - |
| 1778019123 | 10.56° C | 82% | 1011.8 hPa | 0 mm | 0 m/s | 53 W/m² | - |
* Rain latest hour (hover to see other rain measurements)
** Current wind speed in m/s (hover to see current wind gust speed)